Weather in Polotskoye

Russia / Chelyabinsk Oblast     52°46′04″N   59°42′24″E
temp.,
°C
wind,
m/s
gust,
m/s
humid.,
%
clouds,
%
prec.,
mm/h
press.,
hPa
HPBL,
m
13 april, tue
tue1323:00+4ene34957 0.0 103853
02:00+3ene488756 0.0 1039120
05:00+4ene389999 0.0 1039141
08:00+5ene389791 0.0 1040208
11:00+9ene57745 0.0 1040494
14:00+11e56676 0.0 1039754
17:00+11e45672 0.0 1038739
20:00+8e34840 0.0 103852
14 april, wed
wed1423:00+5ese34920 0.0 103976
02:00+3ese33920 0.0 103854
05:00+2ese22904 0.0 103721
08:00+4e22841 0.0 103695
11:00+9ese33605 0.0 1035414
14:00+13ese33465 0.0 1033622
17:00+14ese34425 0.0 1031621
20:00+9ese33617 0.0 103120
15 april, thu
thu1523:00+6sse226945 0.0 103115
02:00+5sse22685 0.0 103010
05:00+4sse11655 0.0 102910
08:00+6ssw11635 0.0 102831
11:00+11sse1246100 0.0 1027303
14:00+15sse2237100 0.0 1024618
17:00+16sse113593 0.0 1022705
20:00+11se2251100 0.0 102110
16 april, fri
fri1623:00+9s2257100 0.0 102010
02:00+8sw1161100 0.0 101910
05:00+7wnw016316 0.0 101810
08:00+8nne116384 0.0 101714
11:00+12n1148100 0.0 1015382
14:00+15nne223998 0.0 1014857
17:00+16nne223884 0.0 10131186
20:00+12ne235964 0.0 101319
17 april, sat
sat1723:00+10ese1165100 0.0 101210
02:00+8nne337229 0.0 101227
05:00+5ne5693100 0.0 1013330
08:00+6ne4487100 0.0 1013439
11:00+6ne3388100 0.0 1013471
14:00+3nne5695100 0.1 1013445
17:00+3n4790100 0.3 1014659
20:00+2n349185 0.1 1014302